TimePST,TemperatureF,Dew PointF,Humidity,Sea Level PressureIn,VisibilityMPH,Wind Direction,Wind SpeedMPH,Gust SpeedMPH,PrecipitationIn,Events,Conditions,WindDirDegrees,DateUTC
12:56 AM,53.1,39.0,59,30.17,10.0,WSW,4.6,-,N/A,,Clear,240,2012-11-20 08:56:00
1:56 AM,52.0,37.9,59,30.16,10.0,WNW,5.8,-,N/A,,Clear,290,2012-11-20 09:56:00
2:56 AM,52.0,37.0,57,30.15,10.0,West,8.1,-,N/A,,Clear,270,2012-11-20 10:56:00
3:56 AM,51.1,37.9,61,30.14,10.0,West,8.1,-,N/A,,Clear,260,2012-11-20 11:56:00
4:56 AM,48.0,37.0,66,30.15,10.0,WSW,5.8,-,N/A,,Clear,250,2012-11-20 12:56:00
5:56 AM,52.0,37.0,57,30.16,10.0,West,9.2,-,N/A,,Clear,260,2012-11-20 13:56:00
6:56 AM,52.0,37.9,59,30.17,10.0,West,9.2,-,N/A,,Clear,260,2012-11-20 14:56:00
7:56 AM,57.9,39.9,51,30.17,10.0,West,6.9,-,N/A,,Clear,270,2012-11-20 15:56:00
8:56 AM,66.0,42.1,42,30.17,10.0,WNW,5.8,-,N/A,,Clear,300,2012-11-20 16:56:00
9:56 AM,73.0,42.1,33,30.17,10.0,North,6.9,-,N/A,,Clear,360,2012-11-20 17:56:00
10:56 AM,75.0,41.0,29,30.14,10.0,NW,4.6,-,N/A,,Clear,320,2012-11-20 18:56:00
11:56 AM,78.1,39.9,25,30.10,10.0,NW,4.6,-,N/A,,Clear,310,2012-11-20 19:56:00
12:56 PM,78.1,37.9,24,30.06,10.0,NW,4.6,-,N/A,,Clear,310,2012-11-20 20:56:00
1:56 PM,80.1,37.9,22,30.04,10.0,Calm,Calm,-,N/A,,Clear,0,2012-11-20 21:56:00
2:56 PM,80.1,36.0,20,30.04,10.0,North,4.6,-,N/A,,Clear,360,2012-11-20 22:56:00
3:56 PM,78.1,39.9,25,30.02,10.0,NE,4.6,-,N/A,,Clear,50,2012-11-20 23:56:00
4:56 PM,71.1,39.0,31,30.02,10.0,East,3.5,-,N/A,,Clear,100,2012-11-21 00:56:00
5:56 PM,64.9,39.0,39,30.03,10.0,SSE,3.5,-,N/A,,Clear,160,2012-11-21 01:56:00
6:56 PM,60.1,35.1,39,30.04,10.0,Calm,Calm,-,N/A,,Clear,0,2012-11-21 02:56:00
7:56 PM,57.0,39.9,53,30.05,10.0,Calm,Calm,-,N/A,,Clear,0,2012-11-21 03:56:00
8:56 PM,57.0,39.0,51,30.06,10.0,Calm,Calm,-,N/A,,Clear,0,2012-11-21 04:56:00
9:56 PM,57.0,37.9,49,30.05,10.0,West,4.6,-,N/A,,Clear,260,2012-11-21 05:56:00
10:56 PM,55.0,37.0,51,30.04,10.0,WSW,5.8,-,N/A,,Clear,250,2012-11-21 06:56:00
11:56 PM,52.0,35.1,53,30.04,10.0,WSW,6.9,-,N/A,,Clear,250,2012-11-21 07:56:00